Location: Archemont
(49.1579°N, 1.7598°E)
Time: 10:19:08
(UTC+00:00)

ISS - Pass Details

Date: 06 March 2024
Orbit: 413 x 419 km, 51.6° (Epoch: 13 April)

Event Time Altitude Azimuth Distance (km) Brightness Sun altitude
Exits shadow 05:08:23 22° 240° (WSW) 974 -2.5 -13.2°
Maximum altitude 05:09:10 25° 217° (SW) 914 -2.4 -13.1°
Drops below altitude 10° 05:11:59 10° 161° (SSE) 1,510 -0.8 -12.7°
Sets 05:14:18 0° 147° (SSE) 2,370 0.4 -12.3°
